www.pogodaiklimat.ru

Погода и климат >> Архив погоды >> Турция >> Килис


ПОГОДА в Килисе

  • Прогноз погоды в Килисе
  • Монитор погоды в Килисе

АРХИВ ПОГОДЫ в Килисе

Время (UTC), дата Ветер
(напр.,м/с)
 
Видим.   Явления Облачность Т
(С)
Тd
(С)
f
(%)
Тe
(С)
Тes
(С)
Комфортность P
(гПа)
Po
(гПа)
Тmin
(С)
Tmax
(С)
R
(мм)
R24
(мм)
S
(см)
06 14.05 В 4
{6}
20 км ясно +28.6 +8.0 27 +28 +35 жарко 1013.2 941.9 +20.5
07 14.05 В 4 20 км ясно +29.9 +8.9 27 +29 +40 жарко 1013.3 942.1
08 14.05 В 3 20 км ясно +31.4 +8.0 23 +30 +45 жарко 1013.0 941.9
09 14.05 В 2
{7}
20 км ясно +33.1 +8.2 21 +32 +51 опасность
солнечного
удара
1012.6 941.7
10 14.05 В 2 20 км ясно +32.4 +7.3 21 +31 +51 опасность
солнечного
удара
1012.3 941.3
11 14.05 ЮВ 2 20 км ясно +31.9 +4.5 18 +30 +49 жарко 1012.0 940.8
12 14.05 В 2
{7}
20 км ясно +33.7 +6.3 18 +32 +46 жарко 1011.2 940.3
13 14.05 ЮВ 2 20 км ясно +32.7 +5.4 18 +30 +41 жарко 1010.9 939.9
14 14.05 ЮВ 1 20 км ясно +32.5 +4.9 18 +30 +37 жарко 1010.6 939.6
15 14.05 ЮВ 1
{5}
20 км ясно +32.1 +5.9 19 +30 +33 жарко 1010.5 939.5
16 14.05 СВ 2 20 км ясно +30.2 +4.8 20 +28 +29 жарко 1010.8 939.8
17 14.05 штиль 0 20 км ясно +28.4 +5.9 24 +27 +27 жарко 1011.1 940.1
18 14.05 штиль 0
{5}
20 км ясно +27.3 +4.9 24 +26 +26 жарко 1011.3 940.4 +33.9
06 15.05 В 1
{3}
20 км ясно +29.7 +6.6 23 +28 +40 жарко 1012.9 942.0 +22.1
07 15.05 В 2 20 км ясно +30.8 +8.6 25 +30 +44 жарко 1012.7 941.9
08 15.05 В 2 20 км ясно +32.0 +6.9 21 +30 +48 жарко 1012.7 941.8
09 15.05 Ю 2
{5}
20 км ясно +31.4 +7.4 22 +30 +52 опасность
солнечного
удара
1012.2 941.5
10 15.05 В 2 20 км ясно +34.0 +5.8 17 +32 +52 опасность
солнечного
удара
1011.4 940.9
11 15.05 ЮВ 2 20 км ясно +34.2 +5.6 17 +32 +51 опасность
солнечного
удара
1011.2 940.5
12 15.05 Ю 2
{5}
20 км ясно +34.3 +5.2 16 +32 +47 жарко 1010.7 940.0
13 15.05 З 1 20 км ясно +34.7 +3.0 14 +32 +44 жарко 1010.0 939.4
14 15.05 ЮЗ 1 20 км ясно +34.3 +1.4 12 +31 +38 жарко 1009.7 939.0
15 15.05 ЮВ 1
{4}
20 км ясно +32.7 +4.0 16 +30 +33 жарко 1009.6 938.7
16 15.05 Ю 1 20 км ясно +31.5 +2.8 16 +29 +29 жарко 1009.2 938.6
17 15.05 штиль 0 20 км ясно +29.2 +5.7 23 +28 +28 жарко 1009.4 938.7
18 15.05 штиль 0
{4}
20 км ясно +28.1 +6.7 26 +27 +27 жарко 1009.4 938.8 +34.9
06 16.05 ЮВ 1
{3}
20 км 4/4 1050 м
[Cu med, cong Ac trans]
+30.2 +5.7 21 +29 +36 жарко 1009.0 938.5 +23.0
07 16.05 В 2 20 км 4/4 1000 м
[Cu hum]
+31.6 +5.0 19 +30 +39 жарко 1008.8 938.4
08 16.05 В 2 20 км 4/4 1000 м
[Cu hum]
+33.4 +2.9 15 +31 +41 жарко 1008.6 938.3
09 16.05 В 3
{6}
20 км 3/0
[Ac trans]
+34.2 +1.8 13 +31 +46 жарко 1008.4 938.2
10 16.05 В 4 20 км 3/0
[Ac trans]
+35.0 +4.0 14 +32 +44 жарко 1007.6 937.4
11 16.05 В 3 20 км 3/0
[Ac trans]
+34.7 +3.0 14 +32 +45 жарко 1007.1 937.0
12 16.05 В 2
{8}
20 км 6/0
[Ac trans]
+34.2 +2.5 14 +31 +41 жарко 1006.9 936.6
13 16.05 В 2 20 км 6/0
[Ac trans]
+35.0 +1.2 12 +32 +38 жарко 1006.3 936.1
14 16.05 В 3 20 км 4/4 1000 м
[Cu hum Ac trans]
+34.5 +0.4 11 +31 +34 жарко 1005.6 935.5
15 16.05 В 2
{7}
20 км 3/0
[Ac trans]
+33.2 +1.4 13 +30 +32 жарко 1005.5 935.1
16 16.05 СВ 1 20 км 3/0
[Ac trans]
+31.8 +0.8 14 +29 +29 жарко 1005.2 935.0
17 16.05 штиль 0 20 км 3/0
[Ac trans]
+29.4 +2.5 18 +27 +27 жарко 1005.4 935.3
18 16.05 штиль 0
{7}
20 км 3/0
[Ac trans]
+28.7 +2.7 19 +27 +27 жарко 1005.8 935.6 +36.1
06 17.05 В 3
{7}
20 км ясно +30.2 +4.8 20 +28 +36 жарко 1005.8 935.6 +24.1
07 17.05 В 5 20 км ясно +31.9 +3.1 16 +29 +36 жарко 1005.8 935.7
08 17.05 В 4 20 км ясно +33.0 +3.3 15 +30 +43 жарко 1005.5 935.5
09 17.05 В 3
{8}
20 км ясно +34.5 +3.2 14 +32 +50 жарко 1005.1 935.2
10 17.05 ЮВ 2 20 км 8/4 1000 м
[Cu med, cong Ac und]
+35.0 +4.2 15 +32 +54 опасность
солнечного
удара
1004.5 934.6
11 17.05 Ю 2 20 км ясно +34.6 +4.5 15 +32 +51 опасность
солнечного
удара
1004.2 934.2
12 17.05 ЮЗ 2
{8}
20 км ясно +35.1 +0.7 11 +32 +47 жарко 1003.7 933.8
13 17.05 З 2 20 км ясно +34.2 +1.8 13 +31 +42 жарко 1003.3 933.3
14 17.05 ЮЗ 3 20 км ясно +33.9 +2.7 14 +31 +36 жарко 1003.1 933.1
15 17.05 ЮЗ 3
{6}
20 км ясно +33.1 -0.7 11 +30 +31 жарко 1003.0 932.9
16 17.05 З 2 20 км ясно +32.0 -1.1 12 +29 +29 жарко 1002.9 932.9
17 17.05 З 3 20 км ясно +28.8 0.0 15 +26 +26 жарко 1003.2 933.0
18 17.05 З 2
{6}
20 км ясно +28.0 +0.4 17 +26 +26 жарко 1003.3 933.2 +35.5
06 18.05 З 2
{8}
20 км ясно +22.6 +10.6 47 +25 +34 комфорт 1007.3 936.0 +17.2
07 18.05 З 3 20 км ясно +22.8 +10.8 47 +25 +38 комфорт 1007.5 936.2
09 18.05 З 5
{8}
20 км ясно +26.1 +5.9 27 +25 +37 комфорт 1007.3 936.1
10 18.05 З 5 20 км ясно +26.3 +5.3 26 +26 +37 жарко 1007.5 936.1
11 18.05 З 4 20 км ясно +27.8 -1.9 14 +25 +37 комфорт 1007.4 935.9
12 18.05 З 5
{9}
20 км ясно +27.3 -3.1 13 +25 +33 комфорт 1007.3 935.6
13 18.05 З 5 20 км ясно +26.7 -3.7 13 +24 +30 комфорт 1007.5 935.6
14 18.05 З 5 20 км ясно +25.7 -1.1 17 +24 +27 комфорт 1008.1 935.9
15 18.05 З 6-11
{11}
20 км ясно +24.4 -3.0 16 +23 +23 комфорт 1008.4 936.0
16 18.05 ЮЗ 5 20 км ясно +22.6 -1.8 20 +21 +22 комфорт 1009.1 936.5
17 18.05 З 3 20 км ясно +21.1 +2.0 28 +21 +21 комфорт 1009.7 937.1
18 18.05 ЮЗ 3
{11}
20 км ясно +19.6 +3.0 33 +20 +20 1009.9 937.4 +27.9
06 19.05 З 2
{5}
20 км 1/1 900 м
[Cu hum]
+19.9 +7.5 45 +21 +30 комфорт 1011.9 939.0 +13.1
07 19.05 З 2 20 км 1/1 600 м
[Cu hum]
+22.2 +7.1 38 +23 +36 комфорт 1011.8 939.0
08 19.05 З 3 20 км 1/1 600 м
[Cu hum]
+23.9 +6.2 32 +24 +39 комфорт 1011.6 938.9
09 19.05 З 3
{6}
20 км 1/1 900 м
[Cu hum]
+25.9 +6.3 29 +26 +40 жарко 1011.0 938.5
10 19.05 З 3 20 км 1/1 600 м
[Cu hum]
+26.9 +5.9 26 +26 +43 жарко 1010.9 938.3
11 19.05 З 3 20 км 3/3 600 м
[Cu hum]
+28.0 +4.0 22 +27 +37 жарко 1010.2 937.9
12 19.05 З 2
{7}
20 км 4/4 900 м
[Cu hum]
+28.2 +6.1 25 +27 +36 жарко 1010.0 937.5
13 19.05 З 3 20 км 4/4 600 м
[Cu hum]
+27.2 +5.5 25 +26 +32 жарко 1009.8 937.3
14 19.05 З 3 20 км 4/4 600 м
[Cu hum]
+27.1 +6.8 28 +27 +29 жарко 1009.7 937.2
15 19.05 ЮЗ 3
{8}
20 км 3/3 900 м
[Cu hum]
+25.8 +6.5 29 +25 +27 комфорт 1010.1 937.4
16 19.05 З 3 20 км 3/3 600 м
[Cu hum]
+24.3 +7.1 33 +24 +25 комфорт 1010.3 937.6
17 19.05 З 3 20 км ясно +22.2 +9.0 43 +24 +24 комфорт 1010.6 937.9
18 19.05 З 4
{8}
20 км ясно +21.5 +9.9 48 +23 +23 комфорт 1010.8 938.2 +28.7
06 20.05 З 1
{6}
20 км ясно +22.3 +9.8 45 +24 +35 комфорт 1014.0 941.4 +17.7
07 20.05 З 1 20 км ясно +25.3 +9.6 37 +26 +43 жарко 1014.0 941.7
08 20.05 З 2 20 км ясно +27.3 +9.3 32 +27 +45 жарко 1013.9 941.8
09 20.05 ЮЗ 2
{7}
20 км ясно +27.3 +8.7 31 +27 +49 жарко 1014.0 941.8
10 20.05 З 3 20 км ясно +28.9 +7.6 26 +28 +45 жарко 1013.3 941.3
11 20.05 З 4 20 км ясно +29.1 +7.0 25 +28 +40 жарко 1013.0 941.0
12 20.05 З 4
{9}
20 км ясно +29.6 +5.1 21 +28 +38 жарко 1012.5 940.6
13 20.05 З 4 20 км ясно +29.9 +5.1 21 +28 +36 жарко 1012.0 940.1
14 20.05 З 4 20 км ясно +29.5 +6.6 24 +28 +32 жарко 1011.9 939.9
15 20.05 ЮЗ 5
{9}
20 км ясно +28.2 +6.0 24 +27 +28 жарко 1012.2 940.1
16 20.05 З 3 20 км ясно +26.7 +4.4 24 +26 +26 жарко 1012.3 940.3
17 20.05 ЮЗ 4 20 км ясно +24.8 +6.4 31 +25 +25 комфорт 1012.8 940.7
18 20.05 З 4
{9}
20 км ясно +22.9 +7.2 36 +24 +24 комфорт 1013.7 941.3 +30.6

 

Местоположение метеостанции Килис (Турция): широта 36.72 долгота 37.11 высота над уровнем моря 638 м.

В архиве по умолчанию представлена погода в Килисе за последнюю неделю. Архивные данные за месяц целиком и за предыдущие месяцы, начиная с января 2011 года, Вы можете получить, выбрав интересующий диапазон дат из раскрывающегося списка и нажав кнопку "Ввод!".


*Определитесь, кто Вы:
робот инопланетянин человек

Внимание! Время в таблицах - всемирное. Для получения местного времени необходимо прибавить поправку, которая равна 2 ч.

Смотрите также архив погоды в соседних городах и на ближайших метеорологических станциях:

Погода в Газиантепе (Турция) (43 км)
Погода в Газиантепе (Турция) (46 км)
Погода в Алеппо (Сирия) (61 км)
Погода в Искендеруне (Турция) (85 км)
Погода в Османие (Турция) (87 км)
Погода в Кахраманмараше (Турция) (99 км)
Погода в Инджирлике (Турция) (153 км)
Погода в Адыямане (Турция) (154 км)
Погода в Шанлыурфе (Турция) (154 км)
Погода в Адане (Турция) (164 км)

Пояснения к столбцам:

Ветер - указаны скорость ветра в м/с - средняя за 10 мин, порывы в срок и между сроками (в фигурных скобках) и направление, откуда дует ветер: С - северный, СВ - северо-восточный, В - восточный, ЮВ - юго-восточный, Ю - южный, ЮЗ - юго-западный, З - западный, СЗ - северо-западный.
Видимость - горизонтальная дальность видимости в метрах или километрах. При видимости от 1 до 10 км при отсутствии осадков обычно наблюдается дымка, при ухудшении видимости до 1 км и менее - туман. В сухую погоду видимость может ухудшаться дымом, пылью или мглою.
Явления - указаны атмосферные явления, наблюдавшиеся в срок или в последний час перед сроком; фигурными скобками обозначены явления, наблюдавшиеся между сроками (за 1-3 часа до срока); квадратными скобками обозначены град или гололедные отложения с указанием их диаметра в мм.
Облачность - указаны через наклонную черту общая и нижняя облачность в баллах и высота нижней границы облаков в метрах; квадратными скобками обозначены формы облаков: Ci - перистые, Cs - перисто-слоистые, Cc - перисто-кучевые, Ac - высококучевые, As - высокослоистые, Sc - слоисто-кучевые, Ns - слоисто-дождевые, Cu - кучевые, Cb - кучево-дождевые. Подробнее классификацию облаков см. в Атласе облаков (PDF).
T - Температура воздуха - температура, измеренная на высоте 2 м над землей.
Td - Температура точки росы - температура, при понижении до которой содержащийся в воздухе водяной пар достигнет насыщения.
f - Относительная влажность воздуха - влажноcть воздуха, измеренная на высоте 2 м над землей.
Te - Эффективная температура - температура, которую ощущает одетый по сезону человек в тени. Характеристика душности погоды. При расчете учитывается влияние влажности воздуха и скорости ветра на теплоощущения человека.
Tes - Эффективная температура на солнце - температура, которую ощущает человек, с поправкой на солнечный нагрев. Характеристика знойности погоды. Зависит от высоты солнца над горизонтом, облачности и скорости ветра. Ночью, в пасмурную погоду, а также при ветре 12 м/с и более поправка равна нулю.
P - Атмосферное давление - приведенное к уровню моря атмосферное давление.
Po - Атмосферное давление - измеренное на уровне метеостанции атмосферное давление.
Tmin - Минимальная температура - минимум температуры воздуха на высоте 2 м над землей.
Tmax - Максимальная температура - максимум температуры воздуха на высоте 2 м над землей.
R - Количество осадков - Количество выпавших осадков за период времени, мм. При наведении курсора мыши на число - период времени, за который выпало указанное количество осадков.
R24 - Количество осадков - Количество выпавших осадков за 24 часа, мм.
S - Снежный покров - Высота снежного покрова, см. При наведении курсора мыши на число - состояние снежного покрова и степень покрытия местности в баллах.